Lakeview AWS, OR

1:16 PM PDT on May 26, 2017 (GMT -0700)
Lake County

Weather History for KLKV - May, 2014

Change the Weather History Date:

Tuesday, May 13, 2014

  Actual Average Record
Temperature  
Mean Temperature 54 °F -  
Max Temperature 75 °F 66 °F 88 °F (1976)
Min Temperature 33 °F 36 °F 24 °F (1990)
Degree Days  
Heating Degree Days 11    
Growing Degree Days 4 (Base 50)    
Moisture  
Dew Point 25 °F    
Average Humidity 35    
Maximum Humidity 65    
Minimum Humidity 15    
Precipitation  
Precipitation 0.00 in - - ()
Sea Level Pressure  
Sea Level Pressure 30.38 in    
Wind  
Wind Speed 6 mph (NNW)    
Max Wind Speed 13 mph    
Max Gust Speed 17 mph    
Visibility 10 miles    
Events      
Averages and records for this station are not official NWS values.
T = Trace of Precipitation, MM = Missing Value Source: NWS Daily Summary

Daily Weather History Graph

Daily Weather History Graph

Search for Another Location

Airport or City:

Trip Planner

Search our weather history database for the weather conditions in past years. The results will help you decide how hot, cold, wet, or windy it might be!

Date:

Astronomy

May. 13, 2014 Rise Set
Actual Time 5:42 AM PDT 8:13 PM PDT
Civil Twilight 5:10 AM PDT 8:45 PM PDT
Nautical Twilight 4:31 AM PDT 9:25 PM PDT
Astronomical Twilight 3:46 AM PDT 10:10 PM PDT
Moon 7:19 PM PDT (5/13) 5:04 AM PDT (5/13)
Length of Visible Light 15h 34m
Length of Day
14h 31m
Waxing Gibbous, 99% of the Moon is Illuminated
May 13
Waxing Gibbous
May 14
Full
May 21
Last Quarter
May 28
New
Jun 5
First Quarter

Hourly Weather History & Observations

Time (PDT) Temp. Windchill Dew Point Humidity Pressure Visibility Wind Dir Wind Speed Gust Speed Precip Events Conditions
12:35 AM 41.0 °F - 21.2 °F 45% 30.37 in 10.0 mi Calm Calm - N/A   Clear
12:55 AM 42.8 °F 39.3 °F 21.2 °F 42% 30.37 in 10.0 mi North 5.8 mph - N/A   Clear
1:15 AM 39.2 °F 35.0 °F 21.2 °F 49% 30.37 in 10.0 mi NNW 5.8 mph - N/A   Clear
1:35 AM 39.2 °F 33.6 °F 23.0 °F 52% 30.37 in 10.0 mi NNW 8.1 mph - N/A   Clear
1:55 AM 39.2 °F 33.0 °F 23.0 °F 52% 30.37 in 10.0 mi NNW 9.2 mph - N/A   Clear
2:15 AM 37.4 °F 32.1 °F 23.0 °F 56% 30.37 in 10.0 mi NW 6.9 mph - N/A   Clear
2:35 AM 37.4 °F 30.8 °F 23.0 °F 56% 30.37 in 10.0 mi NW 9.2 mph - N/A   Clear
2:55 AM 37.4 °F 30.3 °F 24.8 °F 60% 30.37 in 10.0 mi NNW 10.4 mph - N/A   Clear
3:15 AM 35.6 °F 28.0 °F 24.8 °F 65% 30.38 in 10.0 mi NNW 10.4 mph - N/A   Clear
3:35 AM 35.6 °F 28.0 °F 24.8 °F 65% 30.38 in 10.0 mi NNW 10.4 mph - N/A   Clear
3:55 AM 35.6 °F 28.0 °F 23.0 °F 60% 30.37 in 10.0 mi NNW 10.4 mph - N/A   Clear
4:15 AM 35.6 °F 28.0 °F 23.0 °F 60% 30.37 in 10.0 mi NNW 10.4 mph - N/A   Clear
4:35 AM 35.6 °F 29.2 °F 23.0 °F 60% 30.36 in 10.0 mi NNW 8.1 mph - N/A   Clear
4:55 AM 35.6 °F 30.7 °F 23.0 °F 60% 30.37 in 10.0 mi North 5.8 mph - N/A   Clear
5:15 AM 33.8 °F 27.0 °F 23.0 °F 65% 30.37 in 10.0 mi North 8.1 mph - N/A   Clear
6:15 AM 33.8 °F 27.0 °F 23.0 °F 65% 30.39 in 10.0 mi NNW 8.1 mph - N/A   Clear
6:35 AM 35.6 °F 30.7 °F 24.8 °F 65% 30.40 in 10.0 mi North 5.8 mph - N/A   Clear
6:55 AM 39.2 °F 35.0 °F 24.8 °F 56% 30.40 in 10.0 mi North 5.8 mph - N/A   Clear
7:15 AM 42.8 °F 38.6 °F 26.6 °F 53% 30.41 in 10.0 mi North 6.9 mph - N/A   Clear
7:55 AM 51.8 °F - 28.4 °F 41% 30.42 in 10.0 mi NNW 4.6 mph - N/A   Clear
9:35 AM 59.0 °F - 26.6 °F 29% 30.42 in 10.0 mi ESE 5.8 mph - N/A   Clear
9:55 AM 60.8 °F - 30.2 °F 31% 30.42 in 10.0 mi SSE 4.6 mph - N/A   Clear
10:35 AM 64.4 °F - 28.4 °F 26% 30.42 in 10.0 mi Calm Calm - N/A   Clear
10:55 AM 66.2 °F - 26.6 °F 23% 30.42 in 10.0 mi Calm Calm - N/A   Clear
11:15 AM 64.4 °F - 24.8 °F 22% 30.42 in 10.0 mi SSE 4.6 mph - N/A   Clear
11:35 AM 64.4 °F - 23.0 °F 21% 30.41 in 10.0 mi East 3.5 mph - N/A   Clear
11:55 AM 66.2 °F - 23.0 °F 19% 30.41 in 10.0 mi SSE 5.8 mph - N/A   Clear
12:15 PM 68.0 °F - 24.8 °F 20% 30.41 in 10.0 mi Calm Calm - N/A   Clear
12:35 PM 66.2 °F - 21.2 °F 18% 30.41 in 10.0 mi NE 3.5 mph - N/A   Clear
12:55 PM 69.8 °F - 23.0 °F 17% 30.40 in 8.0 mi South 8.1 mph - N/A   Clear
1:15 PM 69.8 °F - 23.0 °F 17% 30.40 in 10.0 mi Calm Calm - N/A   Clear
1:35 PM 69.8 °F - 21.2 °F 16% 30.40 in 10.0 mi Calm Calm - N/A   Clear
1:55 PM 71.6 °F - 23.0 °F 16% 30.39 in 10.0 mi SSE 4.6 mph - N/A   Clear
2:15 PM 69.8 °F - 21.2 °F 16% 30.39 in 10.0 mi NNW 5.8 mph - N/A   Clear
2:35 PM 73.4 °F - 24.8 °F 16% 30.39 in 10.0 mi WSW 6.9 mph - N/A   Clear
2:55 PM 73.4 °F - 24.8 °F 16% 30.38 in 10.0 mi NW 6.9 mph - N/A   Clear
3:15 PM 73.4 °F - 26.6 °F 18% 30.37 in 10.0 mi NW 6.9 mph - N/A   Clear
3:35 PM 73.4 °F - 24.8 °F 16% 30.37 in 10.0 mi WNW 8.1 mph - N/A   Clear
3:55 PM 75.2 °F - 24.8 °F 15% 30.36 in 10.0 mi SW 5.8 mph - N/A   Clear
4:15 PM 75.2 °F - 24.8 °F 15% 30.36 in 10.0 mi Calm Calm - N/A   Clear
4:35 PM 73.4 °F - 23.0 °F 15% 30.36 in 10.0 mi NNW 4.6 mph - N/A   Clear
4:55 PM 75.2 °F - 24.8 °F 15% 30.35 in 10.0 mi NNE 4.6 mph - N/A   Clear
5:15 PM 75.2 °F - 24.8 °F 15% 30.35 in 10.0 mi NNW 4.6 mph - N/A   Clear
5:35 PM 75.2 °F - 24.8 °F 15% 30.35 in 10.0 mi NNW 6.9 mph - N/A   Clear
5:55 PM 73.4 °F - 24.8 °F 16% 30.35 in 10.0 mi North 11.5 mph - N/A   Clear
6:15 PM 73.4 °F - 24.8 °F 16% 30.34 in 10.0 mi North 11.5 mph - N/A   Clear
6:35 PM 71.6 °F - 24.8 °F 17% 30.34 in 10.0 mi North 11.5 mph - N/A   Clear
6:55 PM 71.6 °F - 24.8 °F 17% 30.34 in 10.0 mi North 9.2 mph - N/A   Clear
7:15 PM 69.8 °F - 26.6 °F 20% 30.34 in 10.0 mi North 10.4 mph - N/A   Clear
7:55 PM 60.8 °F - 32.0 °F 34% 30.35 in 10.0 mi North 9.2 mph - N/A   Clear
8:15 PM 57.2 °F - 30.2 °F 36% 30.35 in 10.0 mi North 6.9 mph - N/A   Clear
8:35 PM 53.6 °F - 32.0 °F 44% 30.36 in 10.0 mi NNW 8.1 mph - N/A   Clear
8:55 PM 51.8 °F - 33.8 °F 50% 30.36 in 10.0 mi North 9.2 mph - N/A   Clear
9:15 PM 51.8 °F - 30.2 °F 44% 30.37 in 10.0 mi NNW 11.5 mph - N/A   Clear
9:35 PM 51.8 °F - 28.4 °F 41% 30.37 in 10.0 mi NNW 10.4 mph - N/A   Clear
9:55 PM 50.0 °F - 28.4 °F 43% 30.39 in 10.0 mi NW 4.6 mph - N/A   Clear
10:15 PM 50.0 °F - 28.4 °F 43% 30.39 in 10.0 mi NNW 10.4 mph - N/A   Clear
10:35 PM 48.2 °F - 28.4 °F 46% 30.39 in 10.0 mi NNW 12.7 mph - N/A   Clear
10:55 PM 51.8 °F - 26.6 °F 38% 30.39 in 10.0 mi North 9.2 mph 17.3 mph N/A   Clear
11:15 PM 55.4 °F - 24.8 °F 31% 30.40 in 10.0 mi North 10.4 mph - N/A   Clear
11:35 PM 57.2 °F - 21.2 °F 25% 30.40 in 10.0 mi North 8.1 mph - N/A   Clear
11:55 PM 53.6 °F - 23.0 °F 30% 30.40 in 10.0 mi NNW 9.2 mph - N/A   Clear